When you browse on this site, cookies collect data to enhance your experience and personalize the content and advertising you see.
Visit our Privacy Policy to learn more. By continuing to use the site, you agree to this use of cookies and data.
  • en Suisse
  • Liste des pays
  • À 7 jours
  • Température de l'eau
  • Carte météo
  • Widgets météo
  • user-avatar
    Se connecter

    Météo par heure à Ciudad Bolívar

    Ce jour, 24 Septembre, Mardi

    Heure Température Précipitation Vent Pression Humidité
    00:00 +25°C° 0 mm 1 m/s 753 mmHg 93%
    01:00 +25°C° 0 mm 2 m/s 753 mmHg 94%
    02:00 +25°C° 0 mm 2 m/s 752 mmHg 95%
    03:00 +24°C° 0 mm 2 m/s 752 mmHg 95%
    04:00 +24°C° 0 mm 2 m/s 753 mmHg 95%
    05:00 +24°C° 0 mm 1 m/s 753 mmHg 95%
    06:00 +25°C° 0 mm 2 m/s 753 mmHg 91%
    07:00 +26°C° 0 mm 2 m/s 754 mmHg 87%
    08:00 +27°C° 0 mm 2 m/s 754 mmHg 83%
    09:00 +29°C° 0 mm 2 m/s 754 mmHg 76%
    10:00 +31°C° 0 mm 2 m/s 754 mmHg 70%
    11:00 +33°C° 0 mm 3 m/s 754 mmHg 63%
    12:00 +34°C° 0 mm 2 m/s 753 mmHg 59%
    13:00 +35°C° 0 mm 2 m/s 752 mmHg 55%
    14:00 +35°C° 0 mm 1 m/s 751 mmHg 51%
    15:00 +35°C° 0 mm 1 m/s 751 mmHg 52%
    16:00 +35°C° 0 mm 1 m/s 751 mmHg 53%
    17:00 +34°C° 0 mm 1 m/s 751 mmHg 55%
    18:00 +33°C° 0.1 mm 1 m/s 751 mmHg 59%
    19:00 +30°C° 0.1 mm 0 m/s 752 mmHg 63%
    20:00 +28°C° 0.1 mm 0 m/s 752 mmHg 67%
    21:00 +30°C° 0.1 mm 1 m/s 752 mmHg 69%
    22:00 +29°C° 0.1 mm 1 m/s 753 mmHg 71%
    23:00 +29°C° 0.1 mm 2 m/s 753 mmHg 73%

    Demain, 25 Septembre, Mercredi

    Heure Température Précipitation Vent Pression Humidité
    00:00 +28°C° 0 mm 2 m/s 753 mmHg 78%
    01:00 +28°C° 0 mm 2 m/s 753 mmHg 82%
    02:00 +27°C° 0 mm 2 m/s 752 mmHg 87%
    03:00 +27°C° 0 mm 2 m/s 753 mmHg 88%
    04:00 +26°C° 0 mm 2 m/s 753 mmHg 89%
    05:00 +26°C° 0 mm 2 m/s 753 mmHg 90%
    06:00 +27°C° 0 mm 2 m/s 753 mmHg 86%
    07:00 +28°C° 0 mm 2 m/s 754 mmHg 83%
    08:00 +29°C° 0 mm 1 m/s 754 mmHg 79%
    09:00 +30°C° 0 mm 2 m/s 754 mmHg 73%
    10:00 +32°C° 0 mm 2 m/s 754 mmHg 66%
    11:00 +34°C° 0 mm 2 m/s 754 mmHg 59%
    12:00 +35°C° 0 mm 2 m/s 753 mmHg 56%
    13:00 +36°C° 0 mm 2 m/s 752 mmHg 53%
    14:00 +36°C° 0 mm 2 m/s 751 mmHg 50%
    15:00 +36°C° 0.1 mm 2 m/s 751 mmHg 52%
    16:00 +35°C° 0.1 mm 2 m/s 751 mmHg 55%
    17:00 +35°C° 0.1 mm 2 m/s 751 mmHg 57%
    18:00 +33°C° 0 mm 1 m/s 751 mmHg 61%
    19:00 +32°C° 0 mm 1 m/s 751 mmHg 64%
    20:00 +31°C° 0 mm 1 m/s 751 mmHg 68%
    21:00 +30°C° 0 mm 1 m/s 752 mmHg 70%
    22:00 +29°C° 0 mm 2 m/s 752 mmHg 72%
    23:00 +29°C° 0 mm 2 m/s 753 mmHg 74%

    Après-demain, 26 Septembre, Jeudi

    Heure Température Précipitation Vent Pression Humidité
    00:00 +28°C° 0 mm 2 m/s 752 mmHg 78%
    01:00 +28°C° 0 mm 3 m/s 752 mmHg 81%
    02:00 +27°C° 0 mm 3 m/s 752 mmHg 84%
    03:00 +27°C° 0 mm 2 m/s 752 mmHg 86%
    04:00 +27°C° 0 mm 2 m/s 752 mmHg 89%
    05:00 +26°C° 0 mm 2 m/s 752 mmHg 91%
    06:00 +27°C° 0 mm 1 m/s 753 mmHg 88%
    07:00 +28°C° 0 mm 1 m/s 753 mmHg 85%
    08:00 +28°C° 0 mm 1 m/s 754 mmHg 82%
    09:00 +30°C° 0 mm 1 m/s 753 mmHg 75%
    10:00 +31°C° 0 mm 1 m/s 753 mmHg 68%
    11:00 +34°C° 0 mm 2 m/s 753 mmHg 61%
    12:00 +33°C° 0 mm 1 m/s 752 mmHg 59%
    13:00 +34°C° 0 mm 1 m/s 751 mmHg 56%
    14:00 +34°C° 0 mm 1 m/s 750 mmHg 53%
    15:00 +34°C° 0 mm 1 m/s 750 mmHg 53%
    16:00 +34°C° 0 mm 1 m/s 750 mmHg 53%
    17:00 +34°C° 0 mm 1 m/s 750 mmHg 52%
    18:00 +33°C° 0 mm 1 m/s 750 mmHg 56%
    19:00 +32°C° 0 mm 1 m/s 751 mmHg 60%
    20:00 +31°C° 0 mm 1 m/s 751 mmHg 64%
    21:00 +30°C° 0.2 mm 2 m/s 751 mmHg 69%
    22:00 +29°C° 0.2 mm 3 m/s 752 mmHg 73%
    23:00 +28°C° 0.2 mm 3 m/s 752 mmHg 78%

    27 Septembre, Vendredi

    Heure Température Précipitation Vent Pression Humidité
    00:00 +28°C° 0 mm 3 m/s 752 mmHg 81%
    01:00 +27°C° 0 mm 3 m/s 752 mmHg 84%
    02:00 +27°C° 0 mm 3 m/s 752 mmHg 87%
    03:00 +27°C° 0 mm 3 m/s 752 mmHg 89%
    04:00 +26°C° 0 mm 2 m/s 752 mmHg 90%
    05:00 +26°C° 0 mm 2 m/s 752 mmHg 91%
    06:00 +27°C° 0 mm 2 m/s 752 mmHg 88%
    07:00 +28°C° 0 mm 3 m/s 753 mmHg 85%
    08:00 +28°C° 0 mm 3 m/s 753 mmHg 81%
    09:00 +30°C° 0 mm 3 m/s 753 mmHg 73%
    10:00 +31°C° 0 mm 3 m/s 753 mmHg 65%
    11:00 +34°C° 0 mm 3 m/s 753 mmHg 57%
    12:00 +35°C° 0 mm 2 m/s 752 mmHg 54%
    13:00 +36°C° 0 mm 2 m/s 751 mmHg 50%
    14:00 +36°C° 0 mm 2 m/s 750 mmHg 46%
    15:00 +36°C° 0 mm 2 m/s 750 mmHg 47%
    16:00 +36°C° 0 mm 2 m/s 750 mmHg 48%
    17:00 +36°C° 0 mm 2 m/s 749 mmHg 50%
    18:00 +34°C° 0 mm 2 m/s 750 mmHg 54%
    19:00 +32°C° 0 mm 2 m/s 750 mmHg 59%
    20:00 +30°C° 0 mm 3 m/s 751 mmHg 63%
    21:00 +30°C° 0 mm 3 m/s 751 mmHg 67%
    22:00 +29°C° 0 mm 4 m/s 751 mmHg 71%
    23:00 +28°C° 0 mm 4 m/s 751 mmHg 75%

    28 Septembre, Samedi

    Heure Température Précipitation Vent Pression Humidité
    00:00 +28°C° 0 mm 4 m/s 751 mmHg 79%
    01:00 +27°C° 0 mm 4 m/s 751 mmHg 82%
    02:00 +27°C° 0 mm 4 m/s 751 mmHg 85%
    03:00 +27°C° 0 mm 4 m/s 751 mmHg 86%
    04:00 +26°C° 0 mm 3 m/s 751 mmHg 87%
    05:00 +26°C° 0 mm 3 m/s 751 mmHg 88%
    06:00 +27°C° 0 mm 3 m/s 752 mmHg 86%
    07:00 +27°C° 0 mm 3 m/s 752 mmHg 83%
    08:00 +28°C° 0 mm 3 m/s 753 mmHg 80%
    09:00 +30°C° 0 mm 3 m/s 753 mmHg 73%
    10:00 +31°C° 0 mm 3 m/s 752 mmHg 66%
    11:00 +32°C° 0 mm 2 m/s 752 mmHg 60%
    12:00 +34°C° 0 mm 2 m/s 751 mmHg 56%
    13:00 +34°C° 0 mm 1 m/s 750 mmHg 52%
    14:00 +35°C° 0 mm 1 m/s 749 mmHg 48%
    15:00 +35°C° 0 mm 1 m/s 749 mmHg 48%
    16:00 +35°C° 0 mm 1 m/s 749 mmHg 49%
    17:00 +34°C° 0 mm 1 m/s 749 mmHg 49%
    18:00 +33°C° 0 mm 1 m/s 749 mmHg 53%
    19:00 +32°C° 0 mm 1 m/s 750 mmHg 56%
    20:00 +31°C° 0 mm 1 m/s 750 mmHg 59%
    21:00 +30°C° 0 mm 2 m/s 750 mmHg 62%
    22:00 +30°C° 0 mm 3 m/s 751 mmHg 64%
    23:00 +30°C° 0 mm 3 m/s 751 mmHg 67%

    29 Septembre, Dimanche

    Heure Température Précipitation Vent Pression Humidité
    00:00 +29°C° 0 mm 3 m/s 750 mmHg 71%
    01:00 +28°C° 0 mm 3 m/s 750 mmHg 75%
    02:00 +28°C° 0 mm 3 m/s 750 mmHg 79%
    03:00 +27°C° 0 mm 3 m/s 750 mmHg 80%
    04:00 +27°C° 0 mm 3 m/s 750 mmHg 81%
    05:00 +27°C° 0 mm 2 m/s 750 mmHg 82%
    06:00 +27°C° 0 mm 3 m/s 751 mmHg 80%
    07:00 +28°C° 0 mm 3 m/s 751 mmHg 77%
    08:00 +29°C° 0 mm 3 m/s 752 mmHg 75%
    09:00 +30°C° 0 mm 3 m/s 752 mmHg 69%
    10:00 +33°C° 0 mm 3 m/s 751 mmHg 63%
    11:00 +34°C° 0 mm 3 m/s 751 mmHg 57%
    12:00 +35°C° 0 mm 3 m/s 750 mmHg 54%
    13:00 +36°C° 0 mm 3 m/s 749 mmHg 51%
    14:00 +36°C° 0 mm 2 m/s 748 mmHg 48%
    15:00 +36°C° 0 mm 2 m/s 748 mmHg 50%
    16:00 +36°C° 0 mm 2 m/s 748 mmHg 52%
    17:00 +35°C° 0 mm 1 m/s 748 mmHg 53%
    18:00 +34°C° 0.2 mm 1 m/s 748 mmHg 57%
    19:00 +32°C° 0.2 mm 2 m/s 748 mmHg 60%
    20:00 +31°C° 0.2 mm 2 m/s 749 mmHg 63%
    21:00 +30°C° 0 mm 3 m/s 749 mmHg 68%
    22:00 +30°C° 0 mm 4 m/s 749 mmHg 73%
    23:00 +29°C° 0 mm 4 m/s 750 mmHg 78%
    Voir plus